GFSCGP_700_spd_078.txt.gz
Wind_Speed
20 21 23 22 20 22 20 22 24 20 15 13 13 16 18 16 15 17 19 15 21 21 21 22 24 23 22 23 17 15 6 12 11 21 16 20 8 5 10 14 13 11 10 10
22 29 23 20 22 22 22 24 23 23 20 20 20 23 18 19 19 15 15 17 18 19 21 24 27 26 24 25 23 18 9 10 17 20 13 14 13 9 12 16 13 12 11 9
27 25 21 24 21 22 22 21 20 19 20 20 21 26 19 20 19 17 13 14 18 21 20 24 29 32 27 27 28 18 8 6 12 15 8 6 7 10 13 14 15 12 12 10
27 23 25 24 27 21 26 20 21 21 20 21 18 23 24 22 21 15 10 10 11 19 12 20 26 31 32 28 29 20 11 12 8 14 16 11 10 6 13 15 17 11 13 12
34 27 23 25 26 23 24 19 20 20 21 22 22 17 23 13 18 13 10 15 8 1 11 17 22 29 30 28 27 14 18 15 7 16 18 20 12 7 9 12 19 16 15 14
34 26 25 24 24 24 21 21 21 19 23 20 23 22 24 25 13 4 4 10 1 7 5 13 21 27 27 29 20 17 21 21 17 14 16 16 9 8 7 9 15 16 17 16
35 34 29 24 19 21 22 23 22 17 16 14 25 26 21 13 5 9 12 7 7 6 4 16 22 28 31 20 14 16 22 27 24 21 15 10 7 9 9 10 14 15 19 17
35 33 32 28 26 21 23 25 24 14 14 18 23 20 21 24 14 11 12 11 5 3 5 11 19 26 28 16 13 20 21 28 27 23 15 10 8 8 11 8 13 14 17 13
36 37 28 29 28 24 24 24 23 26 27 22 21 9 11 4 8 10 9 10 7 9 7 16 24 13 11 9 9 8 12 23 26 20 15 6 7 8 9 10 13 9 7 7
36 37 33 28 30 29 28 22 22 24 16 16 21 21 8 24 18 15 14 12 6 8 13 19 13 12 8 4 1 5 5 17 18 15 10 5 4 7 7 9 8 6 5 4
36 32 32 27 29 30 27 28 28 28 22 12 13 5 7 13 9 12 7 3 4 8 14 11 12 7 1 1 4 8 9 2 7 9 5 3 4 5 6 8 8 6 5 2
34 35 30 35 23 28 25 26 26 27 21 26 25 12 12 6 6 11 13 7 6 9 12 9 9 5 2 3 3 4 3 11 10 8 0 3 4 4 5 6 8 9 8 5
10 27 24 30 26 19 23 28 26 26 26 31 20 6 8 12 14 10 13 11 8 7 8 14 10 8 6 6 5 6 1 4 5 5 2 3 6 6 5 6 6 8 10 8
11 11 13 23 28 23 25 26 26 25 21 27 28 24 10 7 7 12 14 14 11 10 12 14 13 10 8 10 8 7 7 5 3 3 1 5 7 6 7 6 6 7 9 9
9 12 15 19 28 27 22 21 26 25 29 25 10 4 12 9 10 5 10 8 11 10 13 13 12 12 12 13 10 11 10 10 8 8 6 9 7 6 6 4 5 6 7 9
9 16 16 21 18 24 23 22 25 25 30 29 25 18 7 11 19 8 6 11 8 8 7 10 12 11 12 12 14 14 15 14 14 13 10 7 8 7 7 7 6 4 5 7
12 9 14 22 20 21 22 25 27 18 17 26 33 25 23 18 16 12 9 12 10 6 7 8 8 11 14 15 17 20 19 19 19 17 15 13 11 8 9 8 7 6 4 1
28 14 13 15 14 16 13 10 13 17 11 18 10 8 18 15 10 15 16 12 10 9 9 10 11 15 17 21 22 23 26 25 24 22 20 18 14 9 12 12 9 8 6 4
14 19 15 18 19 16 24 8 20 25 14 12 19 21 11 23 20 9 7 5 3 1 3 5 9 19 21 21 25 28 30 31 30 28 22 20 18 14 14 13 11 10 10 8
20 18 18 16 17 6 21 24 30 6 13 9 17 25 17 16 12 7 7 5 5 12 13 16 16 17 20 23 27 28 31 33 36 33 27 20 21 17 15 13 13 13 13 11
21 24 27 23 18 7 8 9 26 16 4 12 11 9 13 18 19 14 8 7 11 16 19 21 24 23 21 25 24 28 34 40 43 34 38 29 26 19 17 16 16 15 15 14
8 17 21 26 23 13 5 7 19 24 24 7 2 4 5 8 7 8 10 13 15 18 21 22 22 23 22 21 26 30 37 52 63 37 45 35 27 19 18 17 18 17 17 18
19 22 19 8 5 5 14 15 18 16 17 8 2 3 6 8 10 13 12 14 18 21 23 22 24 25 25 29 30 31 29 34 33 38 14 37 27 19 18 17 18 18 19 21
13 13 17 13 2 5 8 11 13 11 7 5 1 3 8 7 12 16 17 20 23 25 24 24 27 29 27 30 32 33 25 21 26 24 15 15 13 16 20 19 19 21 23 24
23 29 32 32 14 14 10 8 8 4 6 3 1 6 10 13 12 17 17 23 26 24 25 26 29 30 31 30 31 32 31 25 26 28 24 22 19 20 22 22 23 23 26 29
15 19 8 17 14 13 8 8 3 4 3 5 8 9 9 10 13 16 18 22 25 26 28 30 32 32 34 33 32 33 32 31 30 31 29 25 24 26 26 32 34 33 33 31

GFSCGP_700_spd_084.txt.gz
Wind_Speed
20 24 30 29 29 28 22 24 28 27 20 34 34 22 13 14 27 25 26 25 23 28 13 17 10 10 12 13 10 5 11 6 3 2 3 5 2 7 8 8 8 6 5 8
27 28 24 20 16 16 20 25 30 30 27 28 22 19 15 14 19 20 26 26 28 28 25 18 11 10 9 10 4 2 11 15 8 6 5 4 4 8 11 11 9 8 7 7
35 32 24 27 25 25 24 28 28 31 29 28 25 21 18 14 14 19 24 31 25 24 30 19 10 8 8 5 7 8 8 14 18 15 13 7 8 9 9 10 11 12 10 8
37 34 31 31 35 32 34 22 29 32 32 30 20 14 26 21 20 22 25 27 23 25 31 19 6 13 9 6 11 15 13 12 20 21 17 13 11 12 8 9 10 12 10 9
39 35 34 34 36 34 36 30 32 33 30 23 24 16 26 18 21 24 24 20 24 18 30 22 8 11 10 7 15 17 16 14 16 24 23 17 12 16 9 8 8 9 8 12
36 27 28 31 30 30 30 33 30 31 23 16 23 20 38 33 27 23 22 15 18 14 25 21 12 16 13 11 17 16 16 13 17 18 25 19 14 14 12 10 7 9 12 13
29 33 36 34 34 34 34 33 20 7 6 8 17 22 38 33 28 22 25 21 18 19 21 26 17 20 14 12 11 11 14 12 17 21 22 26 18 18 12 13 8 11 12 12
27 31 35 35 34 35 33 29 19 7 4 10 24 13 41 31 36 35 27 24 20 18 15 16 16 17 18 11 11 13 9 13 16 21 28 29 29 21 9 15 7 13 12 11
34 40 35 38 35 34 33 29 28 15 5 7 10 26 33 29 21 15 31 24 20 21 17 18 17 19 16 11 11 10 10 13 13 22 29 27 18 23 6 10 7 12 11 10
14 12 27 40 33 37 38 30 19 18 3 7 9 18 24 17 17 18 27 24 21 17 21 12 12 13 15 13 10 12 11 12 14 18 20 19 12 1 6 7 6 8 10 9
6 12 31 18 36 35 32 30 28 25 19 6 2 5 4 6 24 22 24 25 23 20 13 12 15 17 13 11 13 13 10 11 12 3 3 5 3 3 6 6 5 6 7 8
18 12 16 34 30 28 33 30 26 26 16 9 10 5 7 4 7 18 23 22 17 13 12 12 16 15 15 14 12 13 12 10 4 1 3 4 3 2 5 6 5 6 5 6
13 11 20 11 29 35 37 27 29 22 25 34 13 13 18 23 17 18 15 14 10 6 9 15 18 16 15 15 16 18 10 7 3 2 3 4 5 4 6 6 7 8 7 7
11 17 11 11 19 17 21 21 28 26 11 31 32 28 23 27 27 26 22 24 24 20 13 15 13 15 17 17 19 16 12 8 7 5 4 4 6 5 6 8 9 9 8 8
14 33 26 25 13 11 10 9 19 15 13 12 17 26 27 29 31 30 26 17 14 20 24 18 14 16 17 12 12 12 12 10 10 9 8 6 8 7 8 9 9 10 9 9
27 29 14 23 11 8 6 4 13 21 24 19 18 11 23 27 26 29 25 18 16 19 28 25 22 19 14 12 11 13 13 13 12 12 13 13 11 11 10 12 12 10 10 10
25 21 13 13 12 2 10 7 3 11 8 10 3 5 24 16 19 19 17 16 27 28 26 24 20 19 14 11 11 11 12 13 13 14 16 17 16 16 15 14 15 14 13 12
18 20 15 9 10 4 4 6 9 10 11 9 3 25 25 18 20 21 21 21 22 19 12 18 18 15 9 6 5 6 11 15 17 19 22 21 21 24 24 21 19 16 15 16
13 18 15 4 1 9 11 8 7 8 12 3 7 27 25 18 18 9 17 16 13 21 26 20 14 7 9 8 8 9 8 9 13 15 18 21 24 27 29 28 30 23 22 20
12 14 17 11 4 4 13 13 7 6 9 12 16 17 23 26 10 27 16 3 10 3 11 17 14 15 18 13 10 12 10 13 16 16 15 19 22 24 29 31 44 35 29 31
4 4 6 4 2 6 7 8 8 5 13 12 12 20 24 22 20 19 17 10 7 5 12 12 13 13 12 9 9 10 12 13 16 18 20 21 23 27 31 39 44 50 45 38
12 7 5 4 3 2 7 14 13 8 16 10 9 6 10 15 22 25 25 17 18 18 15 14 12 11 11 11 11 11 12 15 17 19 22 24 25 28 34 33 41 52 66 56
6 11 7 6 4 2 7 6 7 9 7 9 5 4 7 21 27 24 21 20 24 19 16 12 10 8 7 9 11 12 14 18 19 22 25 30 30 32 29 25 23 34 24 60
17 14 13 8 6 13 9 13 15 30 11 11 7 9 11 10 14 15 10 19 19 15 12 12 13 14 15 16 17 18 20 23 26 28 29 33 35 31 27 19 10 1 1 24
9 15 15 11 13 15 12 6 1 9 9 15 15 9 4 6 9 9 10 9 10 13 15 15 16 17 17 18 19 23 25 27 28 26 28 31 33 31 24 15 14 12 17 24
10 10 11 7 9 3 3 5 6 3 6 6 6 6 6 3 2 6 10 13 14 15 16 17 17 16 16 15 16 17 18 19 19 20 22 25 28 29 25 21 21 22 21 33

GFSCGP_700_spd_087.txt.gz
Wind_Speed
27 31 40 33 32 34 33 28 27 26 23 19 20 20 14 19 24 26 24 21 21 18 13 15 15 17 14 3 4 8 12 13 11 5 3 2 6 7 10 9 11 10 11 12
31 36 32 29 29 27 29 30 31 24 15 18 20 25 19 20 14 25 23 24 23 23 22 22 16 19 10 6 7 6 5 14 15 10 7 3 6 9 13 14 14 14 14 14
35 33 26 27 25 24 25 27 28 27 20 29 30 27 22 20 16 15 22 26 29 27 24 26 22 13 11 10 7 5 6 8 16 15 12 8 8 11 12 13 13 15 18 15
30 34 30 30 29 26 31 23 27 30 31 31 29 20 26 22 23 20 15 15 16 17 21 26 26 18 12 9 7 3 9 12 13 19 20 14 12 14 14 13 14 15 17 15
28 31 29 33 34 28 33 25 27 30 35 36 33 18 20 21 27 28 22 23 20 20 21 21 26 15 10 9 7 4 8 13 16 14 21 22 20 17 18 13 13 14 14 16
22 26 34 27 28 29 27 30 27 28 28 13 34 29 28 26 30 31 30 25 18 15 19 20 24 18 17 12 10 7 7 13 15 17 17 19 21 20 17 13 14 13 14 14
20 21 28 31 26 25 26 25 16 12 8 9 23 24 31 32 31 32 28 20 15 15 18 22 32 23 19 12 9 8 8 10 14 17 17 19 20 30 24 15 16 12 15 12
16 21 27 28 29 27 26 27 17 5 6 12 21 11 33 31 26 24 28 30 27 21 16 23 28 19 12 13 8 10 10 9 13 17 19 23 27 31 27 8 12 12 10 10
10 26 27 25 26 26 30 22 25 20 17 2 11 14 29 24 24 31 18 18 17 22 19 18 16 16 16 15 11 10 8 10 14 15 17 21 14 19 12 13 4 9 7 8
10 16 18 27 26 29 27 29 19 11 2 4 7 8 24 27 25 23 11 19 22 24 18 17 16 16 19 15 15 11 9 11 14 13 16 17 8 5 3 4 7 5 7 8
3 9 15 18 29 29 23 23 18 13 11 5 4 10 20 13 15 13 17 24 23 21 22 20 22 15 17 18 17 12 11 13 13 12 14 4 2 1 6 4 6 8 9 10
10 2 12 14 23 22 34 19 19 26 13 8 7 20 17 13 8 14 25 26 26 28 22 12 12 15 20 17 16 14 14 14 14 12 8 3 2 1 6 6 7 9 9 10
9 9 10 12 7 16 19 32 27 13 21 16 7 25 19 18 17 6 8 18 20 19 16 15 15 16 14 14 15 15 15 14 14 13 7 5 4 3 5 7 7 9 10 9
9 3 10 12 18 22 23 16 24 20 23 11 19 24 21 22 24 22 21 21 16 10 12 13 18 25 13 21 19 16 16 16 15 11 7 5 3 5 6 6 8 8 9 10
7 14 15 14 15 17 24 20 26 27 21 8 9 20 16 13 25 25 24 26 27 31 26 31 29 23 15 21 19 16 17 17 16 13 8 7 5 6 8 9 9 9 9 10
9 11 23 22 17 8 14 4 15 13 12 15 16 19 20 11 21 25 24 23 23 25 29 29 29 19 19 19 17 18 18 18 18 13 11 12 12 12 12 14 14 13 12 12
16 12 14 28 25 18 2 16 11 7 2 7 18 14 14 16 24 29 29 25 20 19 25 29 26 19 19 20 18 17 17 16 15 15 15 16 17 17 19 20 22 20 18 16
22 16 16 25 28 0 1 4 6 9 4 3 10 7 17 18 28 34 35 33 31 13 21 23 24 23 20 19 16 11 10 11 11 12 14 18 20 21 22 24 23 23 22 19
19 22 15 10 4 4 6 4 5 7 7 2 6 5 13 21 23 24 26 31 23 18 23 23 25 24 18 8 7 4 4 5 6 8 11 15 19 21 22 24 25 25 25 32
11 14 15 9 5 6 6 2 2 2 1 6 4 9 13 14 20 20 19 31 36 17 26 14 2 10 17 8 8 7 5 6 7 7 10 13 15 17 20 22 24 24 28 26
4 2 6 7 3 6 8 3 2 4 1 7 6 14 17 20 18 20 22 26 21 7 6 4 14 11 15 19 16 13 12 10 11 11 15 16 19 22 25 27 28 31 31 34
9 4 4 1 3 6 7 5 5 5 7 7 7 12 17 23 19 19 21 20 15 8 3 9 6 13 15 18 16 16 16 14 14 16 19 23 25 28 31 33 33 34 33 41
3 5 3 3 5 8 9 9 10 8 9 10 12 8 8 13 14 10 14 7 10 11 2 6 12 11 13 15 15 17 17 17 18 20 23 27 32 34 36 37 33 32 34 42
8 6 11 11 7 9 11 10 11 11 12 13 12 12 6 3 5 10 10 9 7 16 19 14 11 11 13 14 18 20 19 21 21 23 27 32 35 37 38 38 35 30 29 29
10 12 13 16 11 10 7 4 2 7 13 5 11 15 12 9 9 9 10 13 12 13 16 18 15 13 13 14 16 18 20 22 24 27 29 31 31 33 34 34 32 29 28 24
8 9 10 10 2 8 1 3 4 13 18 10 12 5 11 6 10 10 11 12 14 17 17 17 17 17 16 16 16 18 19 21 23 25 26 27 26 25 23 24 25 28 32 27

GFSCGP_700_spd_093.txt.gz
Wind_Speed
35 37 39 33 35 33 27 29 20 17 21 26 27 30 24 28 25 19 19 18 23 17 21 28 30 23 19 17 17 16 16 14 13 9 7 6 6 7 7 8 9 11 11 11
30 40 34 29 26 29 30 26 22 25 19 19 23 25 22 23 23 18 16 18 22 23 19 19 30 29 27 20 14 17 17 16 16 13 10 10 8 7 8 9 10 14 15 16
31 25 20 21 25 30 31 27 21 22 21 23 24 21 17 19 14 14 12 10 25 24 21 21 23 28 28 27 18 15 15 14 13 13 13 13 12 8 9 11 12 13 16 18
22 31 33 25 26 25 28 24 26 23 17 19 14 22 19 17 16 17 13 11 12 21 24 26 28 29 30 29 22 15 18 15 13 9 10 11 11 13 14 18 19 16 16 17
20 21 19 24 27 29 25 18 16 15 15 17 18 12 19 18 16 14 16 12 15 16 16 17 22 24 24 32 24 23 21 17 14 10 8 7 11 15 16 19 21 21 19 16
20 16 14 15 14 20 22 15 16 16 12 9 19 14 13 14 10 14 12 11 14 19 23 24 23 24 19 26 31 29 25 18 16 13 9 8 10 16 18 19 20 23 24 18
16 18 24 19 16 16 15 12 9 7 6 9 13 8 11 12 12 12 14 15 15 19 24 25 28 26 21 32 34 33 26 21 17 14 13 10 12 16 18 22 28 27 22 15
7 7 12 14 15 16 16 16 11 5 7 12 9 9 7 13 6 9 12 20 21 19 23 26 30 29 28 33 31 36 28 23 19 15 12 13 13 14 16 18 15 8 15 14
6 7 8 7 5 6 6 8 14 4 10 7 10 14 10 5 6 15 19 22 22 21 23 26 29 31 30 31 34 34 30 24 20 16 13 12 12 12 8 3 3 5 7 12
5 10 10 8 6 10 12 11 8 7 6 13 18 23 19 15 13 16 19 16 15 23 23 27 28 22 19 31 34 31 29 25 20 18 15 12 12 9 9 5 2 2 5 6
10 6 9 9 7 8 15 17 16 13 11 12 14 22 18 16 20 26 26 25 14 16 25 28 26 21 26 29 32 30 29 27 25 21 17 14 12 9 11 10 7 6 6 6
9 8 9 8 7 4 3 3 6 13 10 18 18 31 16 19 20 24 26 23 10 5 17 20 21 21 28 26 28 30 29 29 27 21 19 16 13 11 13 12 10 7 5 5
11 5 10 9 4 9 9 10 10 12 20 23 17 25 21 23 26 24 23 19 10 3 8 15 19 22 24 25 26 26 27 33 31 24 21 17 15 14 14 14 11 9 8 7
9 9 8 10 9 11 13 9 13 15 13 21 24 21 20 23 24 18 14 13 8 3 5 9 9 9 16 20 22 22 26 30 29 23 15 14 20 18 17 16 14 11 10 9
14 10 10 11 14 13 14 12 14 10 16 21 24 26 26 20 17 11 12 10 10 8 7 14 6 9 6 12 17 20 29 32 27 22 21 21 24 23 19 18 16 14 12 10
17 9 17 17 15 12 14 15 18 18 19 15 14 20 21 17 13 9 15 15 15 16 13 8 13 23 21 21 22 23 22 17 23 24 22 22 27 24 20 18 16 14 12 10
25 16 12 17 15 16 11 11 15 21 13 14 8 14 11 11 10 11 17 19 19 17 10 9 11 15 17 23 24 29 31 32 33 23 26 26 30 25 23 22 21 18 15 13
27 22 18 15 14 8 9 11 13 9 8 9 7 6 2 6 6 6 7 8 12 12 10 12 15 18 15 16 18 26 30 33 40 33 29 31 32 28 26 25 23 23 20 20
16 15 12 12 12 9 15 8 5 4 3 9 2 3 3 7 9 5 5 4 5 7 10 13 18 22 24 21 27 33 41 47 64 51 32 34 31 29 27 24 25 25 24 24
11 16 17 6 6 5 5 6 4 5 7 11 9 10 5 2 2 1 2 4 13 15 14 17 20 26 30 32 35 30 33 24 28 40 31 25 23 25 22 22 25 24 25 24
7 7 10 15 7 6 9 7 7 11 6 7 5 7 8 8 9 10 10 14 16 20 18 20 22 18 16 15 19 14 14 25 15 18 24 25 22 20 21 23 24 26 25 25
6 6 3 3 7 6 6 5 9 11 9 8 9 10 9 9 12 12 11 12 18 10 1 7 8 10 8 9 7 6 17 25 17 14 11 15 19 21 22 24 27 29 30 30
4 12 9 6 10 10 9 9 10 11 10 12 13 14 15 14 12 10 5 4 9 9 6 5 6 5 5 5 5 3 8 5 3 12 20 20 21 23 25 27 30 34 36 37
14 10 14 15 16 15 10 11 12 12 13 14 15 15 12 8 2 4 6 9 7 6 6 4 2 4 7 3 4 9 8 11 12 14 16 20 24 27 30 32 34 36 35 33
5 11 19 16 16 13 5 4 6 8 10 7 1 1 3 6 9 9 9 6 6 4 3 3 8 9 11 10 9 9 10 11 14 16 21 24 26 27 28 28 25 22 23 25
10 19 18 17 15 5 2 7 10 5 5 6 3 6 5 2 7 11 7 6 4 4 3 6 8 10 6 7 8 10 12 12 15 17 19 21 20 17 16 16 17 19 22 23

GFSCGP_700_spd_096.txt.gz
Wind_Speed
17 25 35 32 31 32 32 32 31 27 21 23 23 27 26 27 28 26 28 25 27 26 24 22 22 28 22 20 21 19 20 20 18 13 10 11 8 7 6 6 6 8 10 11
15 22 24 29 30 32 32 32 34 32 28 27 27 29 26 25 28 28 29 27 30 28 28 22 23 25 27 27 22 18 19 20 18 16 15 13 12 11 9 9 9 8 11 13
19 18 14 18 24 28 34 34 33 33 29 26 26 33 29 22 21 22 24 28 28 29 28 30 20 19 24 28 27 19 16 19 18 18 19 17 15 13 11 10 11 12 13 15
14 16 19 21 21 22 29 26 31 31 30 29 25 22 25 20 19 21 20 23 23 25 28 27 23 23 23 26 28 21 16 19 19 20 21 17 14 12 13 16 17 15 18 17
10 13 13 18 20 19 25 20 25 27 30 29 31 21 23 19 18 19 20 22 18 17 24 22 26 24 19 22 25 26 16 24 22 19 16 16 15 14 17 20 20 20 22 23
13 13 12 10 12 13 15 17 19 19 21 21 24 27 26 20 14 14 19 21 19 15 18 21 20 22 18 19 24 33 33 26 23 19 16 13 12 14 18 17 20 25 26 24
16 10 10 13 12 11 11 15 20 18 18 14 23 19 15 16 12 12 16 16 15 16 13 20 26 27 27 23 21 35 35 31 26 21 20 14 12 14 16 15 21 27 28 30
10 13 3 5 11 10 10 16 17 14 10 10 17 13 19 14 13 10 8 10 15 18 18 22 25 30 32 32 26 32 36 33 28 23 18 17 16 15 14 15 17 19 11 11
10 7 9 8 9 9 5 9 11 14 16 15 19 26 20 12 12 6 8 10 13 22 23 27 30 34 37 41 34 29 36 35 31 23 22 17 17 14 12 14 9 7 2 6
6 14 9 8 10 13 13 8 11 10 11 14 12 23 22 17 19 14 15 12 14 17 26 32 36 37 41 36 34 31 39 36 30 27 23 18 15 13 12 13 10 8 7 8
11 9 13 11 9 11 11 15 18 19 15 15 11 17 16 19 18 19 16 17 19 19 18 30 37 38 38 35 33 39 43 39 33 29 28 20 17 13 13 14 13 11 11 10
8 9 15 17 10 8 8 9 12 18 15 23 24 29 15 10 14 18 17 20 19 17 16 23 28 30 29 28 40 40 41 38 33 32 29 23 19 15 13 14 13 13 12 11
13 10 16 18 14 11 8 5 8 11 15 23 23 24 11 11 13 25 21 23 15 14 8 10 14 19 19 31 39 36 35 36 35 34 31 24 20 17 15 15 13 13 12 12
13 14 16 21 21 15 14 11 11 11 19 24 22 23 25 8 16 20 20 15 8 5 3 10 14 13 19 28 36 40 41 39 38 36 31 26 21 19 16 17 15 15 14 12
11 16 18 19 20 20 21 19 18 17 18 17 19 21 23 26 24 20 18 12 5 3 7 10 17 14 14 14 18 22 35 38 41 41 37 29 21 19 23 20 20 18 16 15
14 17 17 21 23 23 20 21 19 18 19 19 19 22 23 26 20 12 10 11 8 7 5 7 9 7 0 7 6 13 14 25 31 37 31 19 22 27 25 22 23 20 18 17
22 17 16 22 19 21 21 23 15 14 13 14 19 14 18 15 13 11 11 6 5 2 9 15 20 20 9 11 10 9 10 21 26 35 36 33 33 31 27 23 24 22 19 20
19 15 17 22 18 17 16 8 8 9 7 8 15 11 12 11 9 11 10 5 2 2 6 13 7 8 14 19 18 21 17 17 24 29 28 33 35 25 28 29 26 26 25 24
9 11 15 18 19 19 15 9 5 5 10 11 5 5 5 2 4 4 3 3 4 2 1 2 6 11 15 20 18 21 28 29 29 35 32 39 34 44 40 38 33 28 27 24
7 11 14 13 12 16 1 8 4 4 11 5 6 7 3 1 7 9 7 4 4 4 5 8 9 11 11 15 20 26 30 34 38 42 49 53 54 49 48 41 38 30 29 28
11 9 14 15 16 5 6 9 5 3 7 4 10 5 3 5 15 11 11 11 12 13 14 19 16 13 9 9 14 16 19 26 33 34 37 30 54 50 47 40 33 31 28 24
5 7 4 5 8 9 11 6 3 6 10 11 7 1 3 7 7 7 8 6 7 9 6 4 7 5 5 10 14 18 7 8 19 17 16 12 8 15 19 31 27 26 23 25
3 6 7 5 9 13 13 9 9 10 13 13 11 10 8 4 3 4 8 6 7 6 7 8 7 5 2 6 10 11 11 5 10 14 19 22 7 4 10 12 16 21 25 29
5 11 5 12 10 15 14 11 8 9 11 9 8 6 5 7 8 10 10 10 10 11 12 9 6 5 4 2 2 3 6 8 12 13 10 2 10 11 12 16 21 26 28 29
6 10 10 12 8 10 9 8 8 7 6 3 1 3 3 7 10 11 14 13 11 9 10 8 6 3 2 4 5 8 7 10 12 7 7 8 13 15 18 20 20 21 22 22
5 8 12 15 14 5 4 5 6 7 7 6 4 3 1 4 8 9 15 5 6 5 4 2 4 3 5 9 10 8 8 9 11 13 14 13 13 13 14 15 16 17 18 19

GFSCGP_700_spd_102.txt.gz
Wind_Speed
13 16 18 17 21 25 28 32 34 32 28 30 32 32 22 23 20 25 27 29 26 26 21 29 28 28 27 26 21 19 17 14 15 15 11 11 8 8 7 7 7 6 12 13
13 20 20 20 20 22 25 29 33 33 29 29 31 35 33 29 29 28 28 29 30 29 29 27 35 30 32 26 25 22 20 17 12 16 15 14 14 12 11 12 11 11 6 9
17 19 17 18 19 21 25 27 27 28 27 27 29 38 36 34 34 32 35 33 29 30 34 32 41 33 32 26 21 25 22 18 14 17 19 19 18 16 15 15 14 13 10 11
15 12 13 15 19 20 26 22 23 25 26 31 25 29 31 31 32 33 35 35 35 30 29 31 41 35 31 26 24 21 26 21 20 21 21 22 18 15 11 13 15 15 16 14
18 17 16 17 19 18 23 21 21 23 27 29 30 25 28 21 24 25 21 21 25 26 29 32 41 33 31 29 23 20 24 24 23 23 21 22 20 17 17 14 13 12 11 13
17 14 16 16 14 16 16 17 18 21 24 21 28 7 18 24 35 29 33 23 18 27 28 32 41 30 32 30 28 22 25 27 25 26 23 23 20 18 16 15 13 15 12 15
14 15 12 8 16 15 15 16 20 17 17 14 17 13 21 25 20 12 15 25 25 24 27 32 42 30 32 27 29 25 27 29 28 29 27 24 22 21 16 16 12 12 12 17
14 5 6 5 12 15 17 16 15 17 14 20 27 13 19 18 12 12 15 26 19 18 6 26 34 30 25 24 34 24 25 24 26 32 30 26 24 22 16 15 12 10 12 10
13 17 21 13 20 13 20 24 24 20 25 23 17 16 28 10 14 8 25 23 19 12 10 19 10 24 15 12 20 22 23 23 24 33 33 30 26 23 19 18 14 11 11 8
14 23 18 20 18 18 21 20 22 24 14 17 12 18 12 10 11 13 23 27 24 9 17 9 14 12 13 14 17 21 22 27 25 31 36 34 28 24 22 22 16 14 10 8
15 19 21 15 15 18 17 20 16 16 16 9 15 9 10 4 25 22 17 22 29 38 31 37 26 16 17 17 22 27 29 28 28 34 38 39 34 30 27 24 18 16 12 10
13 18 21 22 23 19 15 7 8 6 10 18 23 17 11 14 22 22 18 17 27 12 21 15 9 14 20 23 25 30 35 40 36 35 41 44 39 35 30 26 20 17 14 14
10 12 22 19 17 0 15 18 15 16 13 21 13 27 11 14 18 28 22 11 14 17 17 17 19 24 22 23 15 27 37 43 36 37 43 48 44 39 34 31 24 21 18 16
15 19 20 22 24 30 26 23 20 17 21 22 27 28 11 17 25 26 15 13 13 15 15 13 17 15 12 21 29 31 31 33 38 32 34 41 48 46 41 38 31 26 22 20
14 19 19 23 25 25 27 27 29 28 31 31 33 21 15 21 29 7 12 9 12 12 12 14 12 15 13 16 23 28 33 35 28 28 25 34 41 45 48 45 34 28 24 22
16 21 21 27 25 26 29 30 26 28 29 32 19 11 10 14 21 14 20 15 10 8 8 14 21 15 2 5 17 25 26 26 28 26 35 42 47 45 20 50 33 26 23 21
19 19 20 28 23 25 28 25 24 19 19 21 18 10 15 20 18 16 16 13 8 11 11 11 10 6 34 13 10 12 12 16 23 34 14 33 43 46 37 36 26 21 21 21
25 25 20 26 23 22 25 15 16 18 12 17 15 16 24 16 14 9 8 7 5 8 2 2 6 5 5 14 13 13 12 16 26 35 23 20 30 49 39 13 23 22 24 24
18 15 22 21 26 30 28 16 17 17 10 15 8 12 9 12 10 11 6 4 1 2 5 3 2 5 7 10 16 10 15 19 23 10 18 17 17 22 14 12 15 19 30 28
8 17 16 10 16 22 10 8 9 13 9 8 16 24 21 10 9 8 7 8 6 1 3 4 2 2 5 9 11 13 14 16 16 14 18 21 26 19 16 17 21 24 24 23
8 13 16 11 15 21 15 20 10 17 5 9 9 17 12 6 8 7 12 15 12 2 2 4 5 4 6 5 7 10 11 11 14 18 23 24 25 25 27 29 29 30 31 32
9 8 12 9 7 5 21 22 13 14 10 11 13 10 11 10 10 6 4 3 6 1 2 4 3 3 2 2 2 4 6 7 7 9 13 17 23 28 33 38 39 40 39 36
5 4 9 10 12 17 17 7 11 23 11 17 13 11 11 10 12 7 6 6 8 6 5 7 8 9 1 1 3 6 7 8 9 13 18 18 15 21 26 25 22 27 43 45
7 7 11 11 5 14 15 18 19 17 11 12 10 9 7 7 8 9 13 8 7 6 5 4 5 7 8 7 5 3 2 4 2 5 7 8 10 11 9 6 8 12 6 19
10 12 10 15 12 17 16 19 19 13 9 9 11 9 5 9 9 9 9 9 8 9 9 9 8 6 6 6 6 4 5 6 7 8 8 6 7 6 2 5 5 2 3 6
7 7 12 17 16 19 21 20 17 12 5 5 5 7 8 7 9 11 12 13 14 12 12 9 2 4 8 8 6 5 5 8 8 9 11 9 6 5 2 2 3 4 5 4

GFSCGP_700_spd_105.txt.gz
Wind_Speed
10 15 18 16 15 20 21 25 31 31 29 30 31 33 31 30 26 18 24 22 26 25 24 28 28 22 20 19 13 19 15 12 14 13 11 10 7 8 7 5 4 5 14 15
9 16 18 19 19 22 25 27 28 29 26 27 28 28 30 30 30 28 24 21 22 18 23 24 32 30 26 24 22 15 20 14 12 15 14 14 13 11 11 12 10 7 8 11
20 21 20 22 22 22 22 24 29 31 24 24 24 29 23 24 25 29 28 28 28 27 22 28 28 32 31 32 27 19 24 18 15 16 18 19 19 19 16 13 12 9 9 11
19 15 13 17 16 16 22 20 25 29 26 25 25 26 32 27 26 23 31 32 33 36 36 27 31 39 36 37 34 22 22 23 20 21 20 20 19 15 8 10 13 12 11 11
20 19 20 18 19 17 20 19 22 23 25 25 32 23 24 13 20 25 33 28 22 25 34 28 38 50 36 35 39 25 22 28 24 24 23 22 22 20 16 15 14 13 10 10
18 23 22 17 14 10 16 19 19 23 28 16 35 17 17 19 19 22 28 27 38 23 27 28 26 42 36 35 40 29 25 30 26 25 28 24 22 21 19 16 13 12 11 12
19 14 14 14 12 14 12 20 14 10 7 7 25 17 6 19 21 19 23 23 18 26 17 25 25 35 42 40 40 34 31 32 28 26 30 27 22 23 20 17 15 11 10 9
9 14 16 13 13 18 28 15 14 7 6 13 29 20 13 10 10 10 13 17 17 23 30 31 22 39 45 40 41 33 36 34 29 26 30 30 25 25 23 21 16 11 8 6
7 16 25 13 18 18 24 22 22 27 29 21 12 14 10 13 8 12 12 11 10 21 32 32 22 32 47 49 39 33 33 38 31 28 30 32 29 29 27 24 16 12 12 7
6 18 21 22 21 17 20 22 15 17 5 6 9 4 8 18 24 29 21 16 16 28 32 33 33 23 44 48 39 29 28 39 35 33 30 34 33 30 31 28 20 15 15 11
7 12 24 20 17 26 23 22 12 13 4 2 4 3 9 19 22 32 30 25 23 27 29 36 27 32 37 37 31 27 20 27 30 31 32 35 38 33 34 31 23 19 19 17
8 14 18 24 25 16 15 11 18 8 8 14 10 2 7 15 21 32 34 36 32 20 27 31 32 14 16 15 32 33 26 24 25 21 21 29 34 37 34 34 29 24 20 20
12 9 18 25 15 5 14 23 20 23 21 16 13 13 26 19 27 24 33 38 34 21 19 19 26 25 26 48 25 30 40 33 33 26 21 22 24 35 35 36 34 31 24 24
13 10 13 19 23 26 32 27 23 26 29 28 27 32 16 10 20 23 27 24 30 29 28 10 11 10 23 30 26 21 25 28 30 30 25 21 23 30 38 41 39 37 31 27
7 11 14 22 25 25 27 28 27 30 32 34 18 10 8 12 18 18 17 19 22 33 36 8 12 6 9 23 22 23 28 26 20 26 30 27 33 34 39 43 44 46 45 32
17 17 18 24 22 23 28 29 28 27 24 14 9 9 13 13 19 24 28 21 16 8 7 12 20 16 20 3 6 24 28 29 22 19 27 27 32 35 39 45 47 46 15 37
25 21 22 31 23 23 24 23 22 16 14 15 16 11 21 18 21 23 25 19 10 6 9 19 21 15 15 18 14 14 8 12 15 10 15 24 28 32 37 45 50 53 54 56
27 26 27 35 27 11 16 8 11 11 12 15 20 20 19 22 21 21 22 13 9 6 8 13 15 11 9 8 10 10 13 22 5 6 9 17 22 13 23 38 49 41 15 10
22 25 25 15 11 17 19 20 20 18 20 16 12 8 13 18 20 20 16 10 9 6 4 5 4 5 7 8 12 7 5 6 5 12 13 7 6 6 11 13 21 14 29 22
7 10 12 4 5 4 10 12 12 18 18 10 13 6 12 20 13 11 6 10 3 6 3 7 6 6 5 5 8 6 6 5 10 13 13 13 11 11 13 2 2 6 12 29
11 11 7 7 10 9 18 16 22 9 15 24 13 12 9 9 8 9 8 13 14 2 1 6 4 6 3 1 3 5 4 6 7 9 12 13 13 13 13 13 17 19 20 25
3 6 4 5 5 6 13 21 15 14 13 20 21 16 12 11 10 8 11 1 8 5 9 7 4 2 4 5 6 5 5 5 8 8 10 14 8 4 8 15 18 25 29 29
3 7 6 5 8 17 10 18 18 17 18 20 21 14 10 12 7 6 6 2 4 7 8 8 8 4 1 1 3 3 3 5 5 8 9 11 13 14 12 10 10 11 13 15
11 9 9 11 7 15 17 20 21 24 22 22 15 11 11 9 7 12 11 7 6 11 6 6 9 9 9 9 6 3 4 2 4 7 9 7 5 6 4 3 4 6 8 4
11 13 9 13 13 13 16 24 28 26 25 18 12 11 9 8 11 10 9 8 6 7 6 9 8 9 8 7 8 8 6 6 6 7 7 6 4 5 6 9 7 6 5 2
11 6 8 14 16 19 21 24 26 23 17 9 9 10 9 11 12 12 13 12 10 9 7 2 8 5 6 7 10 8 8 6 5 7 4 2 3 5 5 5 5 7 6 5

GFSCGP_700_spd_108.txt.gz
Wind_Speed
3 8 10 11 12 17 20 24 28 27 23 27 29 26 24 24 25 22 15 13 25 31 23 17 21 29 20 17 13 9 18 16 16 9 12 10 6 7 10 10 10 12 14 16
9 14 15 22 23 26 25 29 32 25 23 23 23 20 24 22 19 18 15 17 13 19 30 26 28 34 27 17 15 17 14 21 20 16 12 13 12 10 10 12 12 12 12 13
19 20 18 20 23 20 16 19 15 24 27 28 27 26 26 16 16 18 19 17 12 3 13 25 41 35 33 27 18 21 22 20 24 22 20 18 19 19 16 10 9 11 12 12
14 13 16 19 20 14 18 16 21 27 26 27 26 13 27 21 15 17 16 17 20 21 20 16 16 31 34 30 25 21 28 27 28 27 26 22 19 14 7 9 10 10 13 14
8 16 19 24 13 13 19 16 19 20 25 27 31 12 23 23 13 16 21 27 30 28 27 19 11 22 33 37 36 29 32 31 30 32 29 26 22 21 19 17 15 15 14 15
17 18 21 18 19 19 12 14 16 17 18 8 16 10 7 6 7 10 16 21 23 30 27 16 15 16 15 21 33 45 36 31 35 34 33 31 24 24 23 22 20 16 15 15
18 20 8 12 2 4 15 20 12 8 5 6 20 18 2 7 6 8 10 15 20 25 28 21 24 32 22 23 31 37 46 35 36 34 35 34 29 26 25 24 21 20 16 16
10 15 7 13 16 20 18 20 8 6 4 10 24 7 4 8 7 7 9 17 17 17 21 22 22 31 30 32 36 39 57 58 42 34 36 36 34 30 27 27 24 23 17 16
6 12 22 26 18 17 14 18 21 19 18 3 1 4 4 2 12 18 19 19 23 12 19 15 16 17 26 34 40 44 53 56 53 49 40 38 37 34 32 28 26 24 19 16
7 14 16 26 27 16 17 16 14 12 4 4 3 5 4 20 20 19 22 21 27 28 19 23 23 26 31 35 38 41 49 55 51 50 43 39 37 36 35 31 30 25 19 19
10 12 19 26 27 26 21 17 13 11 8 2 2 7 16 17 15 15 21 21 25 37 30 18 25 32 32 25 33 43 46 48 48 48 39 34 36 36 37 35 33 29 24 21
17 14 16 24 28 24 15 11 20 17 10 16 13 14 11 16 12 14 21 17 23 26 24 25 24 26 31 18 43 38 39 46 39 40 32 26 33 31 34 36 37 33 30 25
17 12 15 15 16 4 9 19 24 23 15 22 7 12 20 16 18 13 15 20 22 30 27 27 25 29 27 28 30 50 60 51 43 29 26 21 25 32 31 38 41 38 35 30
5 6 4 5 10 18 26 30 27 23 25 31 28 22 13 10 13 16 23 25 27 24 24 22 16 12 9 8 12 28 41 50 27 23 33 34 35 35 35 37 45 46 44 39
7 8 11 13 17 21 27 27 26 26 27 27 21 14 7 10 16 18 21 23 23 20 19 11 9 10 14 13 9 16 13 30 21 25 28 34 32 35 35 36 43 48 44 43
23 20 21 24 24 21 21 21 25 25 20 18 14 15 15 20 21 22 22 22 18 20 17 12 8 8 14 9 4 11 7 6 17 27 28 28 37 45 23 31 34 42 42 44
33 35 33 31 22 22 23 23 20 15 10 14 16 18 20 22 20 19 17 18 15 12 11 6 7 19 11 5 4 11 11 14 9 14 19 24 22 16 42 33 27 31 36 40
38 39 34 28 24 8 27 21 11 14 15 19 18 16 12 14 17 21 20 13 15 13 13 11 7 8 9 5 1 3 5 4 9 10 7 3 7 9 10 22 26 34 34 38
15 27 27 16 19 19 13 13 17 17 20 23 26 25 16 13 18 18 16 13 14 10 8 10 9 6 4 4 5 6 3 5 7 11 10 3 7 9 13 7 7 11 21 30
19 8 15 15 5 7 12 12 19 21 22 17 20 19 15 8 13 14 8 6 7 7 5 7 8 8 6 5 4 2 3 7 7 6 9 12 9 11 10 9 5 3 13 24
12 11 10 5 3 10 10 14 15 8 8 14 16 18 17 14 14 17 13 12 14 15 4 3 1 7 5 3 2 4 3 3 3 6 6 6 9 12 13 14 13 14 10 14
8 8 8 6 7 8 6 15 14 17 17 20 22 16 14 12 14 12 13 11 5 6 4 4 6 2 1 2 5 4 4 3 4 8 10 11 8 4 4 7 12 17 20 20
13 16 12 11 8 15 17 15 19 19 18 25 22 21 17 19 14 13 3 8 7 4 6 8 6 3 2 1 1 0 2 3 4 7 7 6 7 8 9 7 4 4 12 21
11 9 16 14 12 15 17 20 22 26 27 28 25 24 17 15 13 11 11 9 6 5 2 6 5 4 7 6 7 7 7 7 6 6 8 6 7 6 7 8 9 11 9 6
16 14 15 16 15 16 16 19 23 26 30 27 24 16 14 14 13 12 10 7 7 7 10 6 9 5 8 9 9 11 11 9 8 7 8 8 6 8 8 7 9 8 8 8
10 14 16 15 16 13 13 16 21 24 26 24 13 9 10 11 13 11 8 7 7 8 8 9 7 4 8 12 10 8 10 11 10 8 9 7 6 7 8 7 6 6 3 4

GFSCGP_700_spd_111.txt.gz
Wind_Speed
4 2 4 10 14 17 20 21 21 14 11 14 16 21 19 16 21 19 13 6 5 9 9 22 14 21 25 22 19 19 20 19 19 19 16 14 10 10 11 11 15 19 16 14
6 5 10 14 12 14 18 19 15 11 12 16 17 21 19 13 15 13 10 7 2 8 19 27 28 27 25 26 28 26 19 21 20 19 16 15 13 11 11 12 13 12 14 16
10 9 7 16 17 17 14 10 7 13 16 17 21 17 18 10 10 9 8 8 5 2 12 24 30 31 34 36 30 30 28 20 22 22 21 19 20 19 18 17 15 12 12 12
5 10 16 15 16 13 15 14 9 12 16 17 21 5 13 18 3 6 8 10 7 2 4 8 13 23 35 28 33 38 36 31 24 28 27 24 19 14 6 12 13 15 15 14
9 16 20 17 12 11 13 9 10 11 12 14 9 1 9 14 2 4 10 16 13 13 16 16 26 31 23 35 34 38 39 37 34 30 31 30 25 20 19 17 15 16 17 18
14 15 11 14 8 7 7 11 11 12 10 4 9 9 8 7 5 6 7 14 16 22 22 19 14 24 42 24 25 38 41 43 44 42 33 33 32 27 24 22 19 18 17 17
17 13 8 11 11 9 19 21 6 3 4 5 11 8 4 1 4 7 11 12 14 18 23 19 15 21 23 33 36 26 39 44 45 49 45 42 36 34 32 27 23 23 20 16
15 9 6 13 18 16 16 10 4 4 3 7 9 5 4 3 2 10 14 17 16 16 15 20 20 27 25 29 29 32 31 34 43 44 48 41 41 35 35 32 29 27 24 19
5 7 12 15 20 20 12 15 9 6 5 1 1 3 6 3 15 20 16 17 19 22 21 21 19 28 22 19 19 22 25 26 29 41 45 38 39 39 35 36 32 29 28 24
5 8 12 13 19 16 16 10 6 8 3 3 2 2 3 13 16 16 18 18 22 22 24 22 18 16 18 24 26 22 20 29 28 40 47 40 36 40 36 34 35 33 30 28
12 7 9 18 15 19 18 6 11 5 5 2 1 5 14 12 21 21 18 22 23 23 27 25 23 20 13 15 17 19 19 24 24 29 38 42 33 42 42 36 37 36 32 31
9 8 8 13 10 11 5 9 18 8 8 11 7 7 8 23 23 19 18 21 22 25 26 21 25 23 20 16 14 19 24 26 24 26 32 42 37 39 43 37 35 36 36 34
10 9 12 12 5 11 17 17 21 19 13 15 5 10 25 20 20 21 17 17 20 23 24 24 25 16 15 13 11 20 27 32 30 23 27 40 34 36 36 36 36 36 39 37
11 9 9 6 7 15 19 20 22 22 16 21 23 28 18 12 14 20 20 21 24 24 21 20 20 8 6 7 11 16 17 30 39 35 33 43 38 36 37 37 37 37 40 42
12 10 13 16 16 19 23 25 25 19 20 25 26 16 12 12 17 22 25 27 26 27 23 20 16 10 10 12 14 12 20 24 28 36 36 46 41 35 34 35 38 38 36 40
23 18 19 31 26 29 36 31 25 19 22 18 14 17 13 17 23 25 26 24 21 19 19 18 17 11 12 17 16 11 8 5 2 20 34 35 29 21 33 31 28 37 45 39
26 28 31 36 38 37 28 24 18 23 19 16 19 19 22 22 23 21 23 23 22 19 17 17 15 17 16 9 12 9 10 6 3 7 23 19 21 21 25 32 34 32 41 37
29 29 31 29 22 4 9 7 15 15 15 20 22 26 26 26 24 22 19 19 17 16 15 16 11 11 10 12 10 8 3 2 2 2 5 13 20 26 24 20 15 17 15 9
17 15 15 8 10 13 18 22 20 19 22 23 22 16 19 21 21 19 18 16 13 12 10 12 11 8 8 9 10 8 6 3 2 1 3 5 8 10 12 9 8 12 17 24
20 16 13 6 4 3 4 9 11 18 24 10 16 16 19 29 26 20 20 15 17 18 11 10 14 10 8 5 3 1 2 2 2 4 6 9 12 12 12 11 11 8 12 14
12 11 8 9 10 13 17 16 14 11 13 18 19 22 20 17 15 22 20 15 17 18 12 8 10 9 6 2 3 4 4 4 3 2 2 4 8 13 17 15 13 13 10 10
11 9 9 4 3 5 8 10 12 17 21 21 23 25 22 18 20 24 19 13 11 10 9 3 1 2 1 3 10 7 6 6 8 7 6 6 5 2 2 6 10 15 16 15
7 8 9 10 10 16 16 17 19 20 21 22 24 26 27 23 17 19 16 12 8 12 5 1 2 3 2 4 2 2 2 3 4 6 6 5 4 6 7 7 7 8 6 13
9 12 15 14 11 18 14 18 19 22 27 28 30 28 26 23 16 14 16 17 15 9 10 7 4 3 4 7 6 7 7 7 7 6 7 8 8 8 9 9 8 8 8 8
20 22 21 16 14 13 15 21 24 24 27 32 30 27 22 15 12 12 15 13 13 12 9 8 9 5 4 4 6 8 8 9 9 7 8 9 9 8 7 7 9 9 7 6
22 16 16 16 15 15 17 18 21 27 31 26 21 15 16 13 11 11 14 11 11 12 9 10 10 7 8 9 8 10 10 9 9 9 8 9 9 8 7 7 7 6 7 6